Location: Riverside
(39.1734°N, 77.8561°W)
Time: 17:34:34
(UTC+00:00)

ISS - Visible Passes

Search period start: 19 March 2019 00:00
Search period end: 29 March 2019 00:00
Orbit: 406 x 411 km, 51.6° (Epoch: 20 March)

Date Brightness Start Highest point End Pass type
(mag) Time Alt. Az. Time Alt. Az. Time Alt. Az.
20 Mar -1.5 00:09:45 10° SE 00:10:07 10° SE 00:10:07 10° SE visible
21 Mar -3.6 00:52:20 10° SW 00:55:13 51° SSE 00:55:13 51° SSE visible
22 Mar -2.7 00:01:48 10° SSW 00:04:39 27° SE 00:07:17 11° ENE visible
22 Mar -1.5 01:38:09 10° W 01:40:05 25° WNW 01:40:05 25° WNW visible
23 Mar -3.2 00:46:49 10° WSW 00:50:03 54° NW 00:51:55 22° NE visible
23 Mar -3.9 23:55:43 10° SW 23:59:01 78° SE 00:02:19 10° NE visible
24 Mar -1.3 01:33:33 10° WNW 01:35:54 18° NNW 01:36:18 18° NNW visible
25 Mar -1.7 00:41:50 10° W 00:44:40 25° NNW 00:47:30 10° NNE visible
25 Mar -2.5 23:50:20 10° WSW 23:53:29 41° NNW 23:56:38 10° NE visible
26 Mar -0.9 01:29:19 10° NW 01:30:45 12° NNW 01:31:46 11° N visible
27 Mar -1.0 00:37:18 10° WNW 00:39:24 16° NNW 00:41:29 10° NNE visible
